LIC2510 KMIA-CYUL

Flight info

Callsign LIC2510
Flight time 2h 59m
Altitude 32000
Route FOLZZ3 ALYRA DCT GRUBR/N0487F310 Y299 SEELO DCT WAALT Q131 PRONI/N0480F330 Q131 EARZZ DCT JAMIE Q133 PBERG CARTR5
Aircraft B77L/H-SDE1E2E3FGHIJ2J3J4J5M1RWXY/LB1D1

Departure

Time 2026-05-06 07:08
Airport Miami International Airport (KMIA)

Arrival

Time 2026-05-06 10:07
Airport Montreal / Pierre Elliott Trudeau International Airport (CYUL)
Time Latitude Longitude Altitude Speed Heading
2026-05-06 06:42 25.79058 -80.29066 25 ft 0 kts 206°
2026-05-06 06:54 25.79057 -80.29067 22 ft 0 kts 206°
2026-05-06 07:01 25.79039 -80.29063 24 ft 3 kts 156°
2026-05-06 07:01 25.79015 -80.29013 24 ft 16 kts 109°
2026-05-06 07:01 25.78980 -80.28920 27 ft 9 kts 131°
2026-05-06 07:02 25.78922 -80.28892 24 ft 9 kts 177°
2026-05-06 07:02 25.78866 -80.28923 28 ft 9 kts 232°
2026-05-06 07:02 25.78842 -80.28990 26 ft 9 kts 252°
2026-05-06 07:02 25.78827 -80.29070 28 ft 13 kts 264°
2026-05-06 07:03 25.78823 -80.29177 27 ft 15 kts 268°
2026-05-06 07:03 25.78819 -80.29296 25 ft 16 kts 268°
2026-05-06 07:03 25.78813 -80.29418 30 ft 16 kts 268°
2026-05-06 07:03 25.78808 -80.29540 27 ft 16 kts 268°
2026-05-06 07:04 25.78806 -80.29663 26 ft 16 kts 269°
2026-05-06 07:04 25.78802 -80.29785 27 ft 16 kts 265°
2026-05-06 07:04 25.78793 -80.29918 27 ft 19 kts 265°
2026-05-06 07:04 25.78785 -80.30066 31 ft 19 kts 270°
2026-05-06 07:05 25.78811 -80.30211 27 ft 19 kts 287°
2026-05-06 07:05 25.78843 -80.30355 26 ft 19 kts 273°
2026-05-06 07:05 25.78841 -80.30503 29 ft 19 kts 270°
2026-05-06 07:05 25.78840 -80.30652 26 ft 19 kts 267°
2026-05-06 07:06 25.78829 -80.30800 26 ft 19 kts 265°
2026-05-06 07:06 25.78826 -80.30948 28 ft 19 kts 271°
2026-05-06 07:06 25.78822 -80.31096 27 ft 19 kts 265°
2026-05-06 07:06 25.78811 -80.31245 30 ft 19 kts 266°
2026-05-06 07:07 25.78783 -80.31355 31 ft 13 kts 218°
2026-05-06 07:07 25.78696 -80.31378 27 ft 14 kts 178°
2026-05-06 07:07 25.78610 -80.31311 28 ft 17 kts 108°
2026-05-06 07:07 25.78638 -80.30947 29 ft 93 kts 85°
2026-05-06 07:08 25.78682 -80.29883 32 ft 180 kts 87°
2026-05-06 07:08 25.78709 -80.28416 883 ft 187 kts 92°
2026-05-06 07:08 25.78585 -80.26966 1974 ft 191 kts 98°
2026-05-06 07:08 25.78361 -80.25434 2299 ft 214 kts 101°
2026-05-06 07:09 25.78045 -80.23712 2564 ft 242 kts 102°
2026-05-06 07:09 25.77661 -80.21829 3123 ft 256 kts 103°
2026-05-06 07:09 25.77245 -80.19870 3886 ft 263 kts 103°
2026-05-06 07:09 25.76784 -80.17890 4684 ft 268 kts 110°
2026-05-06 07:10 25.75962 -80.16001 5345 ft 278 kts 119°
2026-05-06 07:10 25.74989 -80.14125 6163 ft 281 kts 120°
2026-05-06 07:10 25.74244 -80.12126 6811 ft 286 kts 97°
2026-05-06 07:10 25.74502 -80.09956 7481 ft 288 kts 62°
2026-05-06 07:11 25.75664 -80.08171 8233 ft 286 kts 46°
2026-05-06 07:11 25.76983 -80.06522 8908 ft 293 kts 46°
2026-05-06 07:11 25.78335 -80.04819 9723 ft 295 kts 46°
2026-05-06 07:11 25.79702 -80.03100 10437 ft 301 kts 46°
2026-05-06 07:12 25.81126 -80.01313 10724 ft 323 kts 46°
2026-05-06 07:12 25.82672 -79.99369 10917 ft 348 kts 46°
2026-05-06 07:12 25.84328 -79.97280 11104 ft 372 kts 46°
2026-05-06 07:12 25.86064 -79.95081 11577 ft 385 kts 46°
2026-05-06 07:13 25.87846 -79.92817 12201 ft 393 kts 46°
2026-05-06 07:13 25.89649 -79.90521 12939 ft 397 kts 46°
2026-05-06 07:13 25.91474 -79.88194 13702 ft 401 kts 46°
2026-05-06 07:13 25.93312 -79.85851 14389 ft 404 kts 46°
2026-05-06 07:14 25.95163 -79.83491 15058 ft 407 kts 46°
2026-05-06 07:14 25.97032 -79.81108 15744 ft 410 kts 46°
2026-05-06 07:14 25.98911 -79.78712 16394 ft 414 kts 46°
2026-05-06 07:14 26.00815 -79.76283 16993 ft 418 kts 46°
2026-05-06 07:15 26.02730 -79.73837 17637 ft 422 kts 46°
2026-05-06 07:15 26.04660 -79.71370 18307 ft 424 kts 46°
2026-05-06 07:15 26.06603 -79.68885 18842 ft 427 kts 46°
2026-05-06 07:15 26.08564 -79.66379 19343 ft 431 kts 46°
2026-05-06 07:16 26.10541 -79.63847 19840 ft 435 kts 46°
2026-05-06 07:16 26.12436 -79.61192 20323 ft 441 kts 50°
2026-05-06 07:16 26.14212 -79.58387 20818 ft 445 kts 52°
2026-05-06 07:16 26.15955 -79.55526 21294 ft 449 kts 52°
2026-05-06 07:17 26.17721 -79.52638 21756 ft 453 kts 52°
2026-05-06 07:17 26.19517 -79.49744 22220 ft 456 kts 51°
2026-05-06 07:17 26.21342 -79.46843 22679 ft 460 kts 51°
2026-05-06 07:17 26.23194 -79.43920 23114 ft 463 kts 50°
2026-05-06 07:18 26.25061 -79.40977 23552 ft 467 kts 50°
2026-05-06 07:18 26.26939 -79.38013 23943 ft 470 kts 50°
2026-05-06 07:18 26.28894 -79.35108 24290 ft 467 kts 43°
2026-05-06 07:18 26.31355 -79.32827 24585 ft 456 kts 27°
2026-05-06 07:19 26.34079 -79.30995 24881 ft 459 kts 26°
2026-05-06 07:19 26.36821 -79.29150 25241 ft 462 kts 26°
2026-05-06 07:19 26.39566 -79.27268 25646 ft 464 kts 27°
2026-05-06 07:19 26.42306 -79.25358 26053 ft 465 kts 27°
2026-05-06 07:20 26.45049 -79.23423 26453 ft 467 kts 27°
2026-05-06 07:20 26.47800 -79.21466 26845 ft 470 kts 27°
2026-05-06 07:20 26.50555 -79.19498 27228 ft 472 kts 27°
2026-05-06 07:20 26.53330 -79.17513 27613 ft 474 kts 27°
2026-05-06 07:21 26.56115 -79.15520 28007 ft 476 kts 27°
2026-05-06 07:21 26.58911 -79.13517 28377 ft 479 kts 27°
2026-05-06 07:21 26.61718 -79.11508 28726 ft 481 kts 27°
2026-05-06 07:21 26.64539 -79.09488 29078 ft 483 kts 27°
2026-05-06 07:22 26.67373 -79.07457 29420 ft 485 kts 27°
2026-05-06 07:22 26.70216 -79.05418 29863 ft 484 kts 26°
2026-05-06 07:22 26.73022 -79.03402 30552 ft 477 kts 26°
2026-05-06 07:22 26.75805 -79.01399 31112 ft 474 kts 26°
2026-05-06 07:23 26.78574 -78.99411 31471 ft 474 kts 26°
2026-05-06 07:23 26.81316 -78.97443 31814 ft 475 kts 26°
2026-05-06 07:23 26.84093 -78.95448 32193 ft 474 kts 26°
2026-05-06 07:23 26.86902 -78.93429 32588 ft 473 kts 25°
2026-05-06 07:24 26.89636 -78.91461 32979 ft 472 kts 25°
2026-05-06 07:24 26.95196 -78.87458 33055 ft 476 kts 25°
2026-05-06 07:25 27.00742 -78.83454 33034 ft 471 kts 25°
2026-05-06 07:25 27.06247 -78.79477 33052 ft 470 kts 25°
2026-05-06 07:26 27.11738 -78.75508 33037 ft 469 kts 25°
2026-05-06 07:26 27.17221 -78.71539 33052 ft 469 kts 25°
2026-05-06 07:27 27.22707 -78.67564 33055 ft 469 kts 25°
2026-05-06 07:27 27.28234 -78.63762 33039 ft 458 kts 16°
2026-05-06 07:27 27.31226 -78.62779 33045 ft 441 kts
2026-05-06 07:28 27.34252 -78.62500 33070 ft 438 kts 359°
2026-05-06 07:28 27.43538 -78.61417 33059 ft 455 kts
2026-05-06 07:29 27.49882 -78.60583 33059 ft 463 kts
2026-05-06 07:29 27.56304 -78.59735 33045 ft 465 kts
2026-05-06 07:30 27.62732 -78.58893 33060 ft 465 kts
2026-05-06 07:30 27.69154 -78.58056 33052 ft 464 kts
2026-05-06 07:31 27.75568 -78.57220 33050 ft 463 kts
2026-05-06 07:31 27.81960 -78.56387 33050 ft 462 kts
2026-05-06 07:32 27.88344 -78.55554 33049 ft 461 kts
2026-05-06 07:32 27.94719 -78.54721 33058 ft 461 kts
2026-05-06 07:33 28.00011 -78.54029 33044 ft 460 kts
2026-05-06 07:33 28.07402 -78.53061 33056 ft 460 kts
2026-05-06 07:34 28.12732 -78.52362 33060 ft 460 kts
2026-05-06 07:34 28.20121 -78.51392 33060 ft 460 kts
2026-05-06 07:35 28.25452 -78.50692 33058 ft 460 kts
2026-05-06 07:35 28.31819 -78.49854 33058 ft 460 kts
2026-05-06 07:36 28.38185 -78.49015 33058 ft 461 kts
2026-05-06 07:36 28.44550 -78.48175 33059 ft 461 kts
2026-05-06 07:37 28.50925 -78.47333 33071 ft 461 kts
2026-05-06 07:37 28.57290 -78.46491 33065 ft 461 kts
2026-05-06 07:38 28.63660 -78.45648 33059 ft 461 kts
2026-05-06 07:38 28.69987 -78.44809 33059 ft 460 kts
2026-05-06 07:39 28.76388 -78.43959 33085 ft 460 kts
2026-05-06 07:39 28.82750 -78.43114 33068 ft 460 kts
2026-05-06 07:40 28.89061 -78.42274 33060 ft 459 kts
2026-05-06 07:40 28.95446 -78.41423 33062 ft 459 kts
2026-05-06 07:41 29.01750 -78.40582 33062 ft 459 kts
2026-05-06 07:41 29.08089 -78.39735 33069 ft 459 kts
2026-05-06 07:42 29.14428 -78.38888 33064 ft 458 kts
2026-05-06 07:42 29.20763 -78.38040 33070 ft 458 kts
2026-05-06 07:43 29.27091 -78.37192 33068 ft 458 kts
2026-05-06 07:43 29.33422 -78.36342 33084 ft 458 kts
2026-05-06 07:44 29.39743 -78.35492 33072 ft 458 kts
2026-05-06 07:44 29.46075 -78.34642 33069 ft 457 kts 360°
2026-05-06 07:45 29.49218 -78.34545 33045 ft 448 kts 349°
2026-05-06 07:45 29.52210 -78.35305 33067 ft 436 kts 338°
2026-05-06 07:45 29.58026 -78.37365 33065 ft 439 kts 340°
2026-05-06 07:46 29.63923 -78.39285 33067 ft 442 kts 340°
2026-05-06 07:46 29.69851 -78.41195 33073 ft 443 kts 340°
2026-05-06 07:47 29.75784 -78.43118 33073 ft 443 kts 340°
2026-05-06 07:47 29.81722 -78.45050 33071 ft 444 kts 340°
2026-05-06 07:48 29.87660 -78.46986 33071 ft 443 kts 340°
2026-05-06 07:48 29.93596 -78.48924 33079 ft 443 kts 340°
2026-05-06 07:49 29.99515 -78.50859 33073 ft 442 kts 340°
2026-05-06 07:49 30.05386 -78.52780 33070 ft 441 kts 340°
2026-05-06 07:50 30.11325 -78.54575 33065 ft 444 kts 346°
2026-05-06 07:50 30.17508 -78.55194 33073 ft 449 kts 353°
2026-05-06 07:51 30.23792 -78.54728 33080 ft 456 kts
2026-05-06 07:51 30.30086 -78.53748 33074 ft 457 kts
2026-05-06 07:52 30.36392 -78.52806 33072 ft 456 kts
2026-05-06 07:52 30.42693 -78.51898 33072 ft 457 kts
2026-05-06 07:53 30.49007 -78.50904 33079 ft 458 kts
2026-05-06 07:53 30.55323 -78.49864 33071 ft 458 kts
2026-05-06 07:54 30.61632 -78.48831 33072 ft 458 kts
2026-05-06 07:54 30.67950 -78.47803 33074 ft 458 kts
2026-05-06 07:55 30.74258 -78.46780 33090 ft 458 kts
2026-05-06 07:55 30.80582 -78.45753 33070 ft 459 kts
2026-05-06 07:56 30.86899 -78.44725 33071 ft 458 kts
2026-05-06 07:56 30.93215 -78.43696 33070 ft 459 kts
2026-05-06 07:57 30.99536 -78.42665 33074 ft 458 kts
2026-05-06 07:57 31.05819 -78.41639 33079 ft 459 kts
2026-05-06 07:58 31.12181 -78.40598 33070 ft 459 kts
2026-05-06 07:58 31.18505 -78.39562 33074 ft 459 kts
2026-05-06 07:59 31.24787 -78.38531 33074 ft 459 kts
2026-05-06 07:59 31.31110 -78.37493 33080 ft 459 kts
2026-05-06 08:00 31.37435 -78.36452 33076 ft 459 kts
2026-05-06 08:00 31.43761 -78.35410 33076 ft 459 kts
2026-05-06 08:01 31.50090 -78.34367 33074 ft 459 kts
2026-05-06 08:01 31.56417 -78.33322 33084 ft 460 kts
2026-05-06 08:02 31.62749 -78.32275 33075 ft 460 kts
2026-05-06 08:02 31.69093 -78.31224 33073 ft 460 kts
2026-05-06 08:03 31.75432 -78.30173 33076 ft 460 kts
2026-05-06 08:03 31.81772 -78.29120 33088 ft 460 kts
2026-05-06 08:04 31.88126 -78.28063 33072 ft 461 kts
2026-05-06 08:04 31.94478 -78.27005 33071 ft 461 kts
2026-05-06 08:05 32.00837 -78.25945 33071 ft 462 kts
2026-05-06 08:05 32.07201 -78.24755 33102 ft 464 kts
2026-05-06 08:06 32.13566 -78.23343 33085 ft 466 kts
2026-05-06 08:06 32.19933 -78.21921 33067 ft 466 kts
2026-05-06 08:07 32.26311 -78.20525 33068 ft 466 kts
2026-05-06 08:07 32.32684 -78.19145 33060 ft 466 kts
2026-05-06 08:08 32.39026 -78.17774 33073 ft 466 kts
2026-05-06 08:08 32.45407 -78.16392 33068 ft 467 kts
2026-05-06 08:09 32.51798 -78.15004 33066 ft 467 kts
2026-05-06 08:09 32.58186 -78.13614 33066 ft 467 kts
2026-05-06 08:10 32.64573 -78.12223 33079 ft 467 kts
2026-05-06 08:10 32.70965 -78.10828 33074 ft 467 kts
2026-05-06 08:11 32.77355 -78.09432 33069 ft 467 kts
2026-05-06 08:11 32.83750 -78.08033 33069 ft 467 kts
2026-05-06 08:12 32.90144 -78.06632 33066 ft 467 kts
2026-05-06 08:12 32.96525 -78.05232 33070 ft 467 kts
2026-05-06 08:13 33.02914 -78.03828 33073 ft 467 kts
2026-05-06 08:13 33.09305 -78.02421 33071 ft 467 kts
2026-05-06 08:14 33.15694 -78.01014 33074 ft 467 kts
2026-05-06 08:14 33.22084 -77.99603 33067 ft 467 kts
2026-05-06 08:15 33.28479 -77.98189 33068 ft 467 kts
2026-05-06 08:15 33.34866 -77.96775 33068 ft 467 kts
2026-05-06 08:16 33.41260 -77.95358 33089 ft 467 kts
2026-05-06 08:16 33.47652 -77.93938 33074 ft 467 kts
2026-05-06 08:17 33.54049 -77.92515 33068 ft 467 kts
2026-05-06 08:17 33.60446 -77.91091 33067 ft 467 kts
2026-05-06 08:18 33.66837 -77.89665 33074 ft 468 kts
2026-05-06 08:18 33.73243 -77.88234 33065 ft 468 kts
2026-05-06 08:19 33.79640 -77.86801 33074 ft 468 kts
2026-05-06 08:19 33.86028 -77.85237 33072 ft 469 kts
2026-05-06 08:20 33.92418 -77.83597 33080 ft 470 kts
2026-05-06 08:20 33.97735 -77.82239 33074 ft 470 kts
2026-05-06 08:21 34.04137 -77.80616 33073 ft 470 kts
2026-05-06 08:21 34.10535 -77.78999 33074 ft 470 kts
2026-05-06 08:22 34.16935 -77.77379 33080 ft 470 kts
2026-05-06 08:22 34.23337 -77.75755 33073 ft 470 kts
2026-05-06 08:23 34.29734 -77.74129 33071 ft 470 kts
2026-05-06 08:23 34.36143 -77.72497 33072 ft 470 kts
2026-05-06 08:24 34.42546 -77.70865 33081 ft 472 kts
2026-05-06 08:24 34.48902 -77.69237 33074 ft 462 kts
2026-05-06 08:25 34.55235 -77.67420 33074 ft 477 kts
2026-05-06 08:25 34.61479 -77.64333 33078 ft 490 kts 18°
2026-05-06 08:26 34.67596 -77.60629 33081 ft 492 kts 18°
2026-05-06 08:26 34.73720 -77.56917 33081 ft 492 kts 18°
2026-05-06 08:27 34.79809 -77.53254 33085 ft 492 kts 18°
2026-05-06 08:27 34.85926 -77.49580 33107 ft 480 kts 18°
2026-05-06 08:28 34.91969 -77.45963 33099 ft 489 kts 18°
2026-05-06 08:28 34.98081 -77.42301 33085 ft 493 kts 18°
2026-05-06 08:29 35.04234 -77.38592 33083 ft 493 kts 18°
2026-05-06 08:29 35.10378 -77.34882 33091 ft 493 kts 18°
2026-05-06 08:30 35.16522 -77.31170 33075 ft 492 kts 18°
2026-05-06 08:30 35.22666 -77.27452 33073 ft 492 kts 18°
2026-05-06 08:31 35.28801 -77.23733 33066 ft 492 kts 18°
2026-05-06 08:31 35.34941 -77.20006 33078 ft 492 kts 18°
2026-05-06 08:32 35.41070 -77.16277 33080 ft 492 kts 18°
2026-05-06 08:32 35.47203 -77.12539 33082 ft 492 kts 18°
2026-05-06 08:33 35.53331 -77.08799 33084 ft 492 kts 18°
2026-05-06 08:33 35.59469 -77.05047 33090 ft 493 kts 18°
2026-05-06 08:34 35.68692 -76.99396 33081 ft 495 kts 18°
2026-05-06 08:35 35.74860 -76.95608 33077 ft 495 kts 18°
2026-05-06 08:35 35.81027 -76.91814 33088 ft 496 kts 19°
2026-05-06 08:36 35.87203 -76.88008 33074 ft 497 kts 19°
2026-05-06 08:36 35.93424 -76.84326 33068 ft 494 kts 15°
2026-05-06 08:37 35.99756 -76.81058 33069 ft 493 kts 14°
2026-05-06 08:37 36.06065 -76.77869 33075 ft 494 kts 15°
2026-05-06 08:38 36.12418 -76.74621 33071 ft 495 kts 15°
2026-05-06 08:38 36.18772 -76.71338 33069 ft 495 kts 15°
2026-05-06 08:39 36.25129 -76.68040 33080 ft 495 kts 15°
2026-05-06 08:39 36.31489 -76.64736 33059 ft 496 kts 15°
2026-05-06 08:40 36.37859 -76.61423 33053 ft 496 kts 15°
2026-05-06 08:40 36.44221 -76.58108 33052 ft 496 kts 15°
2026-05-06 08:41 36.50588 -76.54785 33044 ft 497 kts 15°
2026-05-06 08:41 36.56967 -76.51451 33059 ft 497 kts 15°
2026-05-06 08:42 36.63340 -76.48112 33054 ft 497 kts 15°
2026-05-06 08:42 36.69711 -76.44768 33051 ft 497 kts 15°
2026-05-06 08:43 36.76080 -76.41420 33063 ft 497 kts 15°
2026-05-06 08:43 36.82455 -76.38063 33058 ft 497 kts 15°
2026-05-06 08:44 36.88784 -76.34723 33037 ft 497 kts 15°
2026-05-06 08:44 36.95155 -76.31356 33048 ft 497 kts 15°
2026-05-06 08:45 37.01529 -76.27981 33042 ft 498 kts 15°
2026-05-06 08:45 37.07905 -76.24599 33017 ft 498 kts 15°
2026-05-06 08:46 37.14286 -76.21207 33019 ft 498 kts 15°
2026-05-06 08:46 37.20688 -76.17801 33346 ft 501 kts 15°
2026-05-06 08:46 37.23884 -76.16094 33794 ft 497 kts 15°
2026-05-06 08:47 37.27053 -76.14399 34237 ft 493 kts 15°
2026-05-06 08:47 37.30197 -76.12716 34611 ft 490 kts 15°
2026-05-06 08:47 37.33326 -76.11042 34921 ft 488 kts 15°
2026-05-06 08:48 37.39551 -76.07711 35011 ft 483 kts 14°
2026-05-06 08:48 37.45774 -76.04382 35024 ft 490 kts 14°
2026-05-06 08:49 37.52074 -76.00997 35016 ft 493 kts 15°
2026-05-06 08:49 37.58386 -75.97590 35004 ft 494 kts 15°
2026-05-06 08:50 37.64470 -75.93376 35023 ft 505 kts 25°
2026-05-06 08:50 37.70323 -75.88447 35026 ft 505 kts 25°
2026-05-06 08:51 37.76162 -75.83517 35022 ft 504 kts 25°
2026-05-06 08:51 37.81976 -75.78660 35032 ft 504 kts 25°
2026-05-06 08:52 37.87833 -75.73784 35022 ft 504 kts 25°
2026-05-06 08:52 37.93688 -75.68900 35013 ft 503 kts 25°
2026-05-06 08:53 37.99526 -75.64017 35011 ft 503 kts 25°
2026-05-06 08:53 38.05373 -75.59116 35007 ft 504 kts 25°
2026-05-06 08:54 38.11218 -75.54207 34998 ft 504 kts 25°
2026-05-06 08:54 38.17076 -75.49276 35001 ft 505 kts 25°
2026-05-06 08:55 38.22938 -75.44367 35009 ft 503 kts 22°
2026-05-06 08:55 38.29178 -75.40774 35003 ft 485 kts
2026-05-06 08:56 38.35661 -75.38937 35006 ft 473 kts
2026-05-06 08:56 38.42167 -75.37657 34989 ft 473 kts
2026-05-06 08:57 38.48685 -75.36329 34993 ft 475 kts
2026-05-06 08:57 38.55214 -75.34953 34993 ft 476 kts
2026-05-06 08:58 38.61746 -75.33564 34992 ft 476 kts
2026-05-06 08:58 38.68290 -75.32175 34989 ft 477 kts
2026-05-06 08:59 38.74829 -75.30531 34974 ft 486 kts
2026-05-06 08:59 38.81224 -75.27454 34982 ft 498 kts 17°
2026-05-06 09:00 38.87319 -75.23195 35005 ft 504 kts 21°
2026-05-06 09:00 38.93421 -75.18746 34979 ft 505 kts 21°
2026-05-06 09:01 38.99583 -75.14306 34952 ft 505 kts 20°
2026-05-06 09:01 39.05678 -75.09952 34948 ft 505 kts 20°
2026-05-06 09:02 39.11825 -75.05557 34970 ft 505 kts 21°
2026-05-06 09:02 39.17965 -75.01152 34953 ft 504 kts 21°
2026-05-06 09:03 39.23990 -74.96814 34965 ft 490 kts 20°
2026-05-06 09:03 39.29775 -74.92114 34970 ft 500 kts 26°
2026-05-06 09:04 39.35512 -74.86847 34968 ft 511 kts 27°
2026-05-06 09:04 39.41333 -74.81462 34954 ft 516 kts 27°
2026-05-06 09:05 39.47174 -74.76088 34978 ft 515 kts 27°
2026-05-06 09:05 39.53021 -74.70730 34963 ft 515 kts 27°
2026-05-06 09:06 39.58871 -74.65363 34956 ft 515 kts 27°
2026-05-06 09:06 39.64710 -74.59993 34957 ft 514 kts 27°
2026-05-06 09:07 39.70548 -74.54611 34952 ft 514 kts 27°
2026-05-06 09:07 39.76374 -74.49228 34952 ft 514 kts 27°
2026-05-06 09:08 39.78177 -74.47561 34950 ft 514 kts 27°
2026-05-06 09:08 39.80848 -74.45086 34954 ft 514 kts 27°
2026-05-06 09:09 39.86671 -74.39687 34981 ft 514 kts 27°
2026-05-06 09:09 39.91519 -74.35183 34937 ft 515 kts 27°
2026-05-06 09:10 39.97347 -74.29754 34958 ft 515 kts 27°
2026-05-06 09:10 40.03132 -74.24350 34921 ft 504 kts 27°
2026-05-06 09:11 40.08879 -74.18989 34948 ft 512 kts 27°
2026-05-06 09:11 40.14718 -74.13530 34948 ft 519 kts 28°
2026-05-06 09:12 40.20583 -74.08017 34943 ft 519 kts 28°
2026-05-06 09:12 40.26450 -74.02494 34948 ft 519 kts 28°
2026-05-06 09:13 40.32314 -73.96975 34936 ft 518 kts 27°
2026-05-06 09:13 40.38468 -73.92282 34927 ft 506 kts 17°
2026-05-06 09:14 40.44817 -73.88482 34945 ft 505 kts 17°
2026-05-06 09:14 40.51247 -73.84580 34929 ft 506 kts 18°
2026-05-06 09:15 40.57619 -73.80629 34923 ft 507 kts 18°
2026-05-06 09:15 40.64048 -73.77004 34937 ft 494 kts 11°
2026-05-06 09:16 40.70613 -73.74862 34935 ft 488 kts
2026-05-06 09:16 40.77326 -73.73012 34920 ft 496 kts
2026-05-06 09:17 40.84039 -73.71100 34918 ft 498 kts
2026-05-06 09:17 40.90847 -73.69116 34904 ft 498 kts
2026-05-06 09:18 40.97620 -73.67134 34905 ft 498 kts
2026-05-06 09:18 41.04340 -73.65168 34920 ft 498 kts
2026-05-06 09:19 41.11113 -73.63185 34909 ft 499 kts
2026-05-06 09:19 41.17900 -73.61192 34906 ft 500 kts
2026-05-06 09:20 41.24599 -73.59218 34922 ft 493 kts
2026-05-06 09:20 41.31310 -73.57585 34907 ft 479 kts 359°
2026-05-06 09:21 41.37908 -73.56715 34921 ft 479 kts 358°
2026-05-06 09:21 41.44602 -73.55888 34921 ft 486 kts 358°
2026-05-06 09:22 41.51343 -73.55006 34863 ft 488 kts 359°
2026-05-06 09:22 41.58098 -73.54087 34866 ft 488 kts 359°
2026-05-06 09:23 41.64854 -73.53159 34853 ft 488 kts 359°
2026-05-06 09:23 41.71600 -73.52233 34855 ft 487 kts 359°
2026-05-06 09:24 41.78332 -73.51310 34856 ft 486 kts 359°
2026-05-06 09:24 41.85042 -73.50391 34874 ft 485 kts 359°
2026-05-06 09:25 41.91750 -73.49472 34850 ft 485 kts 359°
2026-05-06 09:25 41.98459 -73.48546 34848 ft 485 kts 359°
2026-05-06 09:26 42.05166 -73.47621 34850 ft 485 kts 358°
2026-05-06 09:26 42.11834 -73.46698 34832 ft 485 kts 359°
2026-05-06 09:27 42.18556 -73.45768 34809 ft 485 kts 358°
2026-05-06 09:27 42.25274 -73.44833 34845 ft 486 kts 358°
2026-05-06 09:28 42.32007 -73.43896 34844 ft 486 kts 358°
2026-05-06 09:28 42.38740 -73.42957 34848 ft 486 kts 358°
2026-05-06 09:29 42.45470 -73.42014 34857 ft 487 kts 358°
2026-05-06 09:29 42.52216 -73.41070 34853 ft 487 kts 358°
2026-05-06 09:30 42.58951 -73.40125 34841 ft 487 kts 358°
2026-05-06 09:30 42.65686 -73.39176 34851 ft 486 kts 358°
2026-05-06 09:31 42.72418 -73.38227 34848 ft 486 kts 358°
2026-05-06 09:31 42.79136 -73.37277 34853 ft 486 kts 358°
2026-05-06 09:32 42.85870 -73.36324 34833 ft 488 kts 358°
2026-05-06 09:32 42.92617 -73.35366 34839 ft 488 kts 358°
2026-05-06 09:33 42.99377 -73.34504 34820 ft 485 kts 354°
2026-05-06 09:33 43.06038 -73.34851 34836 ft 478 kts 347°
2026-05-06 09:34 43.12686 -73.35536 34825 ft 479 kts 347°
2026-05-06 09:34 43.19347 -73.36182 34831 ft 481 kts 347°
2026-05-06 09:35 43.26024 -73.36789 34841 ft 482 kts 347°
2026-05-06 09:35 43.32655 -73.37374 34756 ft 469 kts 347°
2026-05-06 09:35 43.35903 -73.37660 34272 ft 466 kts 347°
2026-05-06 09:36 43.39119 -73.37945 33862 ft 461 kts 347°
2026-05-06 09:36 43.42310 -73.38233 33405 ft 456 kts 347°
2026-05-06 09:36 43.45457 -73.38519 32929 ft 452 kts 347°
2026-05-06 09:36 43.48534 -73.38799 32494 ft 447 kts 347°
2026-05-06 09:37 43.51617 -73.39079 32075 ft 442 kts 347°
2026-05-06 09:37 43.54669 -73.39357 31655 ft 437 kts 346°
2026-05-06 09:37 43.57685 -73.39632 31245 ft 433 kts 346°
2026-05-06 09:37 43.60678 -73.39906 30840 ft 428 kts 346°
2026-05-06 09:38 43.63632 -73.40181 30450 ft 424 kts 346°
2026-05-06 09:38 43.66564 -73.40446 30062 ft 420 kts 346°
2026-05-06 09:38 43.69471 -73.40707 29620 ft 417 kts 346°
2026-05-06 09:38 43.72351 -73.40987 29187 ft 413 kts 346°
2026-05-06 09:39 43.75200 -73.41298 28778 ft 408 kts 345°
2026-05-06 09:39 43.78011 -73.41622 28407 ft 404 kts 345°
2026-05-06 09:39 43.80819 -73.41952 28009 ft 406 kts 345°
2026-05-06 09:39 43.83650 -73.42288 27639 ft 412 kts 346°
2026-05-06 09:40 43.86550 -73.42638 27225 ft 424 kts 346°
2026-05-06 09:40 43.89499 -73.42987 26824 ft 426 kts 346°
2026-05-06 09:40 43.95373 -73.43643 25976 ft 420 kts 347°
2026-05-06 09:41 43.98271 -73.43968 25588 ft 416 kts 346°
2026-05-06 09:41 44.01148 -73.44294 25190 ft 413 kts 346°
2026-05-06 09:41 44.04004 -73.44620 24799 ft 410 kts 347°
2026-05-06 09:41 44.06804 -73.44941 24409 ft 408 kts 347°
2026-05-06 09:42 44.09619 -73.45263 24021 ft 405 kts 347°
2026-05-06 09:42 44.12415 -73.45580 23640 ft 402 kts 347°
2026-05-06 09:42 44.15195 -73.45900 23240 ft 400 kts 346°
2026-05-06 09:42 44.17953 -73.46220 22824 ft 397 kts 347°
2026-05-06 09:43 44.20698 -73.46532 22424 ft 394 kts 346°
2026-05-06 09:43 44.23425 -73.46850 22029 ft 391 kts 346°
2026-05-06 09:43 44.26129 -73.47165 21656 ft 389 kts 347°
2026-05-06 09:43 44.28816 -73.47478 21280 ft 387 kts 347°
2026-05-06 09:44 44.31486 -73.47786 20913 ft 384 kts 347°
2026-05-06 09:44 44.34141 -73.48093 20551 ft 382 kts 347°
2026-05-06 09:44 44.36783 -73.48400 20164 ft 380 kts 347°
2026-05-06 09:44 44.39417 -73.48706 19830 ft 379 kts 347°
2026-05-06 09:45 44.42047 -73.49012 19459 ft 378 kts 347°
2026-05-06 09:45 44.44667 -73.49316 19099 ft 378 kts 347°
2026-05-06 09:45 44.47280 -73.49621 18738 ft 377 kts 347°
2026-05-06 09:45 44.49894 -73.49926 18370 ft 376 kts 347°
2026-05-06 09:46 44.52500 -73.50230 17964 ft 376 kts 347°
2026-05-06 09:46 44.55108 -73.50534 17562 ft 375 kts 347°
2026-05-06 09:46 44.57701 -73.50836 17199 ft 374 kts 347°
2026-05-06 09:46 44.60293 -73.51138 16813 ft 373 kts 347°
2026-05-06 09:47 44.62870 -73.51440 16428 ft 371 kts 347°
2026-05-06 09:47 44.65443 -73.51741 16055 ft 370 kts 347°
2026-05-06 09:47 44.68004 -73.52041 15686 ft 369 kts 347°
2026-05-06 09:47 44.70557 -73.52340 15328 ft 369 kts 347°
2026-05-06 09:48 44.73119 -73.52642 14958 ft 368 kts 347°
2026-05-06 09:48 44.75667 -73.52944 14592 ft 368 kts 347°
2026-05-06 09:48 44.78214 -73.53245 14228 ft 367 kts 347°
2026-05-06 09:48 44.80761 -73.53547 13860 ft 367 kts 347°
2026-05-06 09:49 44.83270 -73.53844 13464 ft 367 kts 347°
2026-05-06 09:49 44.85843 -73.54148 13049 ft 366 kts 347°
2026-05-06 09:49 44.88378 -73.54436 12662 ft 365 kts 347°
2026-05-06 09:49 44.90876 -73.54709 12294 ft 363 kts 348°
2026-05-06 09:50 44.93390 -73.54981 11927 ft 362 kts 348°
2026-05-06 09:50 44.95896 -73.55254 11567 ft 360 kts 348°
2026-05-06 09:50 44.98392 -73.55528 11229 ft 359 kts 348°
2026-05-06 09:50 45.00884 -73.55802 10855 ft 359 kts 348°
2026-05-06 09:51 45.03366 -73.56076 10522 ft 357 kts 348°
2026-05-06 09:51 45.05813 -73.56342 10393 ft 348 kts 348°
2026-05-06 09:51 45.08200 -73.56603 10230 ft 341 kts 348°
2026-05-06 09:51 45.10537 -73.56860 10080 ft 332 kts 347°
2026-05-06 09:52 45.12810 -73.57108 9885 ft 326 kts 347°
2026-05-06 09:52 45.15069 -73.57362 9539 ft 325 kts 347°
2026-05-06 09:52 45.17321 -73.57614 9200 ft 324 kts 348°
2026-05-06 09:52 45.19533 -73.57855 8846 ft 311 kts 348°
2026-05-06 09:53 45.21624 -73.58078 8537 ft 293 kts 347°
2026-05-06 09:53 45.23607 -73.58294 8231 ft 281 kts 347°
2026-05-06 09:53 45.25569 -73.58521 7993 ft 288 kts 348°
2026-05-06 09:53 45.27622 -73.58764 7720 ft 302 kts 349°
2026-05-06 09:54 45.29719 -73.58996 7387 ft 296 kts 349°
2026-05-06 09:54 45.31713 -73.59203 7058 ft 278 kts 349°
2026-05-06 09:54 45.33587 -73.59402 6663 ft 262 kts 349°
2026-05-06 09:54 45.35366 -73.59596 6163 ft 252 kts 349°
2026-05-06 09:55 45.37085 -73.59786 5643 ft 243 kts 350°
2026-05-06 09:55 45.38736 -73.59932 5154 ft 233 kts 358°
2026-05-06 09:55 45.40272 -73.59229 4460 ft 239 kts 32°
2026-05-06 09:55 45.41610 -73.57831 3761 ft 238 kts 31°
2026-05-06 09:56 45.42968 -73.56511 3260 ft 236 kts 30°
2026-05-06 09:56 45.44348 -73.55191 3124 ft 241 kts 31°
2026-05-06 09:56 45.45724 -73.53870 2999 ft 236 kts 31°
2026-05-06 09:56 45.47076 -73.52568 3011 ft 234 kts 31°
2026-05-06 09:57 45.48426 -73.51270 3020 ft 236 kts 31°
2026-05-06 09:57 45.49786 -73.49959 3018 ft 236 kts 31°
2026-05-06 09:57 45.51147 -73.48646 3018 ft 237 kts 31°
2026-05-06 09:57 45.52497 -73.47343 3004 ft 232 kts 31°
2026-05-06 09:58 45.53794 -73.46089 2995 ft 227 kts 31°
2026-05-06 09:58 45.55094 -73.44834 2997 ft 224 kts 31°
2026-05-06 09:58 45.56380 -73.43588 3001 ft 224 kts 32°
2026-05-06 09:58 45.57585 -73.42169 3014 ft 225 kts 39°
2026-05-06 09:59 45.58735 -73.40654 3026 ft 225 kts 40°
2026-05-06 09:59 45.59546 -73.39712 3037 ft 221 kts 25°
2026-05-06 09:59 45.61005 -73.39307 3015 ft 215 kts 346°
2026-05-06 09:59 45.62316 -73.40224 3018 ft 210 kts 313°
2026-05-06 10:00 45.63104 -73.41927 3017 ft 206 kts 290°
2026-05-06 10:00 45.63349 -73.43898 3011 ft 200 kts 271°
2026-05-06 10:00 45.63327 -73.46523 3007 ft 199 kts 269°
2026-05-06 10:00 45.63309 -73.47836 3010 ft 199 kts 269°
2026-05-06 10:01 45.63286 -73.49840 3040 ft 198 kts 269°
2026-05-06 10:01 45.63267 -73.51762 3000 ft 190 kts 269°
2026-05-06 10:01 45.63231 -73.53543 2971 ft 167 kts 262°
2026-05-06 10:01 45.62665 -73.54836 2985 ft 154 kts 218°
2026-05-06 10:02 45.61822 -73.55776 2975 ft 150 kts 231°
2026-05-06 10:02 45.61081 -73.56871 2997 ft 153 kts 226°
2026-05-06 10:02 45.60328 -73.57840 3014 ft 140 kts 226°
2026-05-06 10:02 45.59609 -73.58776 3011 ft 140 kts 226°
2026-05-06 10:03 45.58887 -73.59722 3012 ft 142 kts 226°
2026-05-06 10:03 45.58145 -73.60697 2833 ft 147 kts 226°
2026-05-06 10:03 45.57394 -73.61685 2617 ft 146 kts 226°
2026-05-06 10:03 45.56655 -73.62654 2419 ft 143 kts 225°
2026-05-06 10:04 45.55927 -73.63611 2234 ft 142 kts 225°
2026-05-06 10:04 45.55194 -73.64577 2046 ft 144 kts 225°
2026-05-06 10:04 45.54461 -73.65540 1851 ft 143 kts 225°
2026-05-06 10:04 45.53732 -73.66498 1636 ft 141 kts 225°
2026-05-06 10:05 45.53015 -73.67440 1453 ft 141 kts 225°
2026-05-06 10:05 45.52291 -73.68390 1255 ft 141 kts 225°
2026-05-06 10:05 45.51574 -73.69333 1046 ft 139 kts 224°
2026-05-06 10:05 45.50865 -73.70264 837 ft 139 kts 223°
2026-05-06 10:06 45.50154 -73.71196 653 ft 137 kts 223°
2026-05-06 10:06 45.49452 -73.72114 469 ft 137 kts 223°
2026-05-06 10:06 45.48762 -73.73020 299 ft 139 kts 223°
2026-05-06 10:06 45.48049 -73.73956 133 ft 138 kts 223°
2026-05-06 10:07 45.47411 -73.74801 112 ft 98 kts 221°
2026-05-06 10:07 45.46980 -73.75344 112 ft 44 kts 222°
2026-05-06 10:07 45.46783 -73.75554 112 ft 21 kts 203°
2026-05-06 10:07 45.46652 -73.75614 111 ft 19 kts 194°
2026-05-06 10:08 45.46527 -73.75657 109 ft 18 kts 192°
2026-05-06 10:08 45.46402 -73.75692 108 ft 18 kts 190°
2026-05-06 10:08 45.46298 -73.75637 109 ft 18 kts 107°
2026-05-06 10:08 45.46297 -73.75492 109 ft 12 kts 85°
2026-05-06 10:09 45.46303 -73.75380 109 ft 11 kts 85°
2026-05-06 10:09 45.46310 -73.75270 109 ft 11 kts 78°
2026-05-06 10:09 45.46371 -73.75246 107 ft 10 kts 341°
2026-05-06 10:09 45.46406 -73.75255 107 ft 0 kts 355°